Cloud_Cover
0 0 0 0 0 0 0 92 100 100 100 89 100 100 100 100 100 100 21 69 99 45 5 5 5 5 4 0 0 100 89 100 100 100 100 100 100 100 100 100 100 100 100 100
0 0 0 0 0 0 0 2 100 100 100 100 100 100 100 100 100 100 22 18 100 55 8 5 5 3 2 0 0 16 100 100 100 100 100 100 100 100 100 99 86 100 100 100
0 0 0 0 0 0 0 0 36 100 100 68 100 100 100 100 100 100 79 5 8 55 5 11 4 0 0 1 3 4 5 63 100 100 100 100 100 100 99 100 100 100 100 100
4 0 0 0 0 0 0 0 5 92 100 33 91 60 100 100 100 100 100 72 9 5 4 0 0 0 4 5 5 5 65 4 76 100 100 100 100 100 100 100 100 100 100 90
0 0 0 0 1 0 0 0 5 93 45 11 87 5 91 100 100 100 69 53 100 99 8 0 0 2 5 56 92 39 5 38 92 5 96 100 100 100 100 100 100 100 100 100
15 44 4 4 7 6 6 4 3 18 57 66 4 32 99 100 100 100 100 100 99 92 18 11 4 4 23 80 100 100 27 18 96 100 60 48 97 100 100 100 100 100 100 94
14 49 6 4 2 93 75 6 94 100 98 0 0 4 0 100 100 100 100 100 100 6 14 38 7 98 100 99 90 24 39 87 71 74 100 100 52 34 0 2 7 6 4 3
100 100 88 97 60 5 5 67 76 98 8 0 98 11 0 0 19 100 100 100 100 46 69 76 100 60 5 7 5 31 88 92 6 5 2 4 8 0 0 0 0 2 1 1
100 38 5 5 0 0 0 8 49 42 6 80 79 1 0 0 0 0 59 100 100 100 100 100 100 79 100 100 99 67 67 46 10 5 8 16 5 5 3 1 0 1 2 3
0 0 1 8 76 63 57 59 73 60 85 97 77 1 1 1 0 0 0 0 11 84 100 100 100 100 100 100 100 100 100 100 93 44 16 11 36 12 5 5 6 14 12 31
5 1 0 9 24 6 3 1 18 89 50 100 100 99 16 0 0 0 0 0 0 0 0 3 35 100 100 100 100 100 100 100 100 100 100 100 41 39 23 35 55 14 21 2
4 0 0 0 5 28 4 0 1 67 15 32 85 13 3 0 0 0 0 16 62 7 16 2 0 0 3 31 100 100 100 100 100 100 100 100 100 100 100 34 5 3 5 26
3 0 0 0 0 5 5 21 19 74 89 97 14 5 5 4 1 0 21 52 86 5 9 12 3 4 1 4 3 2 1 23 24 47 25 10 37 42 3 0 0 0 0 0
7 0 0 0 41 0 6 99 77 81 5 78 98 100 100 100 79 4 4 9 56 90 59 18 78 84 6 100 67 72 87 9 3 22 4 0 0 0 0 0 2 2 0 0
37 0 0 95 5 29 1 9 81 100 75 100 100 100 100 100 100 96 41 90 99 100 100 100 100 75 85 5 16 0 46 98 100 100 98 70 31 1 4 5 5 2 0 0
58 5 5 6 6 15 10 4 5 89 100 100 100 100 100 100 100 100 100 100 97 36 100 100 100 7 9 89 57 56 44 89 100 100 100 91 13 0 0 2 0 0 0 0
98 5 46 5 81 60 88 94 5 5 100 100 100 100 100 100 100 100 100 100 100 100 100 88 94 6 7 17 63 3 0 0 0 0 0 0 0 0 1 0 0 0 0 0
100 89 35 64 94 72 63 56 5 79 100 100 100 100 100 100 100 100 100 100 100 100 100 98 70 7 1 8 2 0 0 3 5 30 58 34 2 1 0 0 0 0 0 0
100 75 77 42 5 5 27 72 88 95 73 97 100 30 40 100 100 100 100 36 74 66 89 5 2 3 15 0 6 9 9 93 82 15 1 0 0 0 0 0 1 3 5 0
100 86 81 23 9 5 5 53 99 100 100 100 100 46 18 6 6 4 5 6 92 99 99 100 99 44 2 4 5 29 100 10 5 4 0 2 4 5 5 5 5 5 6 39
96 100 100 80 5 34 74 76 88 100 100 93 100 100 69 45 7 5 5 7 5 5 5 5 12 77 57 18 100 100 69 16 5 5 5 5 5 5 5 5 10 100 100 66
100 100 92 100 100 100 100 73 100 100 100 88 61 64 78 98 98 92 78 62 78 65 90 84 34 66 98 100 72 5 5 5 5 5 5 5 5 5 5 25 95 30 40 94
100 83 75 74 74 96 100 22 89 94 89 81 99 100 86 27 42 87 92 100 98 43 24 82 100 93 26 5 5 5 5 5 5 5 5 5 7 6 10 26 64 96 80 98
96 96 98 100 100 100 98 24 96 98 100 100 100 75 5 5 53 96 98 90 72 33 12 5 5 5 5 5 5 5 5 5 12 31 84 99 87 53 60 100 100 98 100 100
100 100 100 100 100 100 73 91 99 100 94 88 36 31 43 35 30 26 8 7 9 6 5 5 5 5 5 5 5 9 10 40 96 100 100 100 91 91 100 91 100 92 100 100
100 100 100 100 45 77 17 42 97 96 67 88 100 97 66 37 24 23 45 52 61 53 37 5 5 5 7 41 97 72 76 100 100 100 98 100 100 98 100 100 100 100 100 100